Delta, CO

11:00 AM MST on December 11, 2017 (GMT -0700)
Delta

Weather History for KAJZ - July, 2013

Change the Weather History Date:

Monday, July 8, 2013

  Actual Average (KMTJ) Record (KMTJ)
Temperature  
Mean Temperature 80 °F -  
Max Temperature 96 °F 88 °F 100 °F (2002)
Min Temperature 64 °F 55 °F 52 °F (1998)
Cooling Degree Days 15    
Growing Degree Days 30 (Base 50)    
Moisture  
Dew Point 44 °F    
Average Humidity 31    
Maximum Humidity 63    
Minimum Humidity 10    
Precipitation  
Precipitation 0.00 in - - ()
Sea Level Pressure  
Sea Level Pressure 30.16 in    
Wind  
Wind Speed 7 mph (East)    
Max Wind Speed 18 mph    
Max Gust Speed 22 mph    
Visibility 10 miles    
Events Rain    
Averages and records for this station are not official NWS values.
T = Trace of Precipitation, MM = Missing Value Source: NWS Daily Summary

Daily Weather History Graph

Daily Weather History Graph

Search for Another Location

Airport or City:

Trip Planner

Search our weather history database for the weather conditions in past years. The results will help you decide how hot, cold, wet, or windy it might be!

Date:

Astronomy

Jul. 08, 2013 Rise Set
Actual Time 5:54 AM MDT 8:39 PM MDT
Civil Twilight 5:23 AM MDT 9:10 PM MDT
Nautical Twilight 4:44 AM MDT 9:50 PM MDT
Astronomical Twilight 3:59 AM MDT 10:34 PM MDT
Moon 6:25 AM MDT (7/8) 8:45 PM MDT (7/8)
Length of Visible Light 15h 47m
Length of Day
14h 44m
New Moon, 0% of the Moon is Illuminated
Jul 8
New Moon
Jul 15
First Quarter
Jul 22
Full
Jul 29
Last Quarter
Aug 6
New

Hourly Weather History & Observations

Time (MDT) Temp. Dew Point Humidity Pressure Visibility Wind Dir Wind Speed Gust Speed Precip Events Conditions
12:15 AM 76.6 °F 52.2 °F 42% 30.16 in 10.0 mi ENE 10.4 mph 19.6 mph N/A   Mostly Cloudy
12:35 AM 75.4 °F 52.3 °F 44% 30.16 in 10.0 mi East 11.5 mph - N/A   Scattered Clouds
12:55 AM 74.5 °F 51.6 °F 45% 30.16 in 10.0 mi ENE 8.1 mph - N/A   Clear
1:15 AM 73.4 °F 52.7 °F 48% 30.16 in 10.0 mi ENE 10.4 mph - N/A   Clear
1:35 AM 72.5 °F 52.3 °F 49% 30.16 in 10.0 mi ENE 8.1 mph - N/A   Clear
1:55 AM 71.6 °F 52.2 °F 50% 30.16 in 10.0 mi NE 5.8 mph - N/A   Clear
2:15 AM 70.9 °F 51.8 °F 51% 30.16 in 10.0 mi ENE 4.6 mph - N/A   Clear
2:35 AM 70.7 °F 51.8 °F 51% 30.16 in 10.0 mi ENE 5.8 mph - N/A   Clear
2:55 AM 69.3 °F 52.3 °F 55% 30.16 in 10.0 mi NNE 6.9 mph - N/A   Clear
3:15 AM 68.0 °F 51.4 °F 55% 30.16 in 10.0 mi NE 9.2 mph - N/A Rain Light Rain
3:35 AM 68.5 °F 51.1 °F 54% 30.17 in 10.0 mi NE 8.1 mph - N/A   Clear
3:55 AM 68.5 °F 51.3 °F 54% 30.17 in 10.0 mi ENE 8.1 mph - N/A   Clear
4:15 AM 68.4 °F 49.6 °F 51% 30.18 in 10.0 mi ENE 6.9 mph - N/A   Clear
4:55 AM 66.6 °F 49.5 °F 54% 30.19 in 10.0 mi NE 9.2 mph - N/A   Clear
5:15 AM 66.2 °F 51.3 °F 59% 30.19 in 10.0 mi East 6.9 mph - N/A   Clear
5:35 AM 66.0 °F 51.8 °F 60% 30.19 in 10.0 mi ENE 9.2 mph - N/A   Clear
5:55 AM 65.8 °F 52.2 °F 61% 30.19 in 10.0 mi ENE 6.9 mph - N/A   Clear
6:15 AM 64.9 °F 52.2 °F 63% 30.20 in 10.0 mi ENE 8.1 mph - N/A   Clear
6:35 AM 66.0 °F 52.2 °F 61% 30.21 in 10.0 mi ENE 9.2 mph - N/A   Clear
6:55 AM 66.6 °F 52.0 °F 59% 30.22 in 10.0 mi ENE 5.8 mph - N/A   Clear
7:15 AM 68.0 °F 52.3 °F 57% 30.22 in 10.0 mi ENE 8.1 mph - N/A   Clear
7:35 AM 69.1 °F 52.3 °F 55% 30.22 in 10.0 mi ENE 10.4 mph - N/A   Clear
7:55 AM 70.5 °F 52.3 °F 52% 30.23 in 10.0 mi ENE 6.9 mph - N/A   Clear
8:15 AM 71.6 °F 52.0 °F 50% 30.23 in 10.0 mi East 9.2 mph - N/A   Clear
8:35 AM 73.2 °F 50.9 °F 45% 30.23 in 10.0 mi East 6.9 mph - N/A   Clear
8:55 AM 75.4 °F 50.5 °F 42% 30.23 in 10.0 mi ENE 6.9 mph - N/A   Clear
9:15 AM 77.0 °F 50.9 °F 40% 30.23 in 10.0 mi East 8.1 mph - N/A   Clear
9:35 AM 79.3 °F 50.4 °F 36% 30.23 in 10.0 mi East 5.8 mph - N/A   Clear
9:55 AM 81.0 °F 49.3 °F 33% 30.22 in 10.0 mi East 8.1 mph - N/A   Clear
10:15 AM 82.6 °F 49.6 °F 32% 30.21 in 10.0 mi SE 9.2 mph 16.1 mph N/A   Clear
10:35 AM 84.0 °F 48.2 °F 29% 30.21 in 10.0 mi East 4.6 mph - N/A   Clear
10:55 AM 85.1 °F 46.2 °F 26% 30.21 in 10.0 mi SE 6.9 mph - N/A   Clear
11:15 AM 86.0 °F 46.4 °F 25% 30.21 in 10.0 mi Calm Calm - N/A   Clear
11:35 AM 87.3 °F 46.4 °F 24% 30.21 in 10.0 mi East 4.6 mph - N/A   Clear
11:55 AM 89.2 °F 46.0 °F 22% 30.20 in 10.0 mi SSE 5.8 mph - N/A   Clear
12:15 PM 89.6 °F 45.9 °F 22% 30.19 in 10.0 mi South 8.1 mph - N/A   Clear
12:35 PM 90.9 °F 44.6 °F 20% 30.18 in 10.0 mi SSE 3.5 mph - N/A   Clear
12:55 PM 92.8 °F 42.6 °F 18% 30.17 in 10.0 mi Calm Calm - N/A   Clear
1:15 PM 93.2 °F 40.5 °F 16% 30.16 in 10.0 mi SW 3.5 mph - N/A   Clear
1:35 PM 92.8 °F 40.5 °F 16% 30.15 in 10.0 mi SSW 9.2 mph - N/A   Clear
1:55 PM 94.6 °F 42.3 °F 16% 30.15 in 10.0 mi SSW 10.4 mph - N/A   Scattered Clouds
2:15 PM 94.1 °F 41.9 °F 16% 30.15 in 10.0 mi SSW 8.1 mph - N/A   Clear
2:35 PM 94.5 °F 39.2 °F 15% 30.14 in 10.0 mi SW 3.5 mph 18.4 mph N/A   Clear
2:55 PM 95.9 °F 37.0 °F 13% 30.14 in 10.0 mi West 11.5 mph 16.1 mph N/A   Scattered Clouds
3:15 PM 94.5 °F 34.7 °F 12% 30.14 in 10.0 mi WNW 12.7 mph 21.9 mph N/A   Scattered Clouds
3:35 PM 96.3 °F 35.8 °F 12% 30.14 in 10.0 mi WSW 8.1 mph 20.7 mph N/A   Clear
3:55 PM 94.6 °F 35.2 °F 12% 30.13 in 10.0 mi WNW 8.1 mph 17.3 mph N/A   Scattered Clouds
4:15 PM 96.3 °F 34.7 °F 12% 30.12 in 10.0 mi Calm Calm - N/A   Scattered Clouds
4:35 PM 95.7 °F 32.0 °F 11% 30.12 in 10.0 mi North 6.9 mph - N/A   Scattered Clouds
4:55 PM 95.4 °F 30.0 °F 10% 30.11 in 10.0 mi West 5.8 mph 18.4 mph N/A   Clear
5:15 PM 94.6 °F 30.9 °F 10% 30.11 in 10.0 mi SSW 5.8 mph - N/A   Clear
5:35 PM 94.8 °F 34.7 °F 12% 30.10 in 10.0 mi Calm Calm - N/A   Clear
5:55 PM 95.2 °F 31.6 °F 11% 30.09 in 10.0 mi Calm Calm - N/A   Clear
6:15 PM 96.1 °F 30.4 °F 10% 30.08 in 10.0 mi SE 3.5 mph - N/A   Clear
6:35 PM 96.1 °F 33.1 °F 11% 30.08 in 10.0 mi WNW 18.4 mph - N/A   Clear
6:55 PM 95.4 °F 34.3 °F 12% 30.09 in 5.0 mi Calm Calm - N/A   Haze
7:15 PM 94.6 °F 30.7 °F 10% 30.08 in 10.0 mi North 3.5 mph - N/A   Clear
7:35 PM 94.3 °F 33.4 °F 12% 30.09 in 10.0 mi East 4.6 mph - N/A   Clear
7:55 PM 93.2 °F 33.4 °F 12% 30.09 in 10.0 mi Calm Calm - N/A   Clear
8:15 PM 91.0 °F 37.9 °F 15% 30.10 in 7.0 mi SW 5.8 mph - N/A   Clear
8:35 PM 88.7 °F 37.9 °F 17% 30.11 in 10.0 mi Calm Calm - N/A   Clear
8:55 PM 88.9 °F 36.5 °F 16% 30.12 in 10.0 mi Calm Calm - N/A   Clear
9:15 PM 87.3 °F 34.0 °F 15% 30.12 in 10.0 mi Calm Calm - N/A   Clear
9:35 PM 83.1 °F 36.5 °F 19% 30.14 in 10.0 mi Calm Calm - N/A   Clear
9:55 PM 80.4 °F 36.5 °F 21% 30.15 in 10.0 mi NNE 8.1 mph - N/A   Clear
10:15 PM 81.5 °F 35.1 °F 19% 30.15 in 10.0 mi Calm Calm - N/A   Clear
10:35 PM 79.7 °F 36.3 °F 21% 30.16 in 10.0 mi Calm Calm - N/A   Clear
10:55 PM 79.0 °F 38.1 °F 23% 30.16 in 10.0 mi East 3.5 mph - N/A   Clear
11:15 PM 79.9 °F 38.5 °F 23% 30.17 in 10.0 mi ENE 8.1 mph - N/A   Clear
11:35 PM 78.8 °F 40.3 °F 25% 30.17 in 10.0 mi ENE 8.1 mph - N/A   Clear
11:55 PM 79.2 °F 40.6 °F 25% 30.18 in 10.0 mi ENE 9.2 mph - N/A   Clear